Location: *
(43.9905°S, 176.4941°W)
Time: 06:45:28
(UTC+00:00)

Cosmos 489 Rocket - Pass Details

Date: 08 December 2019
Orbit: 952 x 984 km, 74.0° (Epoch: 23 January)

Event Time Altitude Azimuth Distance (km) Brightness Sun altitude
Exits shadow 08:55:27 - 349° (NNW) 3,359 6.9 -13.7°
Reaches altitude 10° 08:57:09 10° 350° (N) 2,730 6.5 -13.8°
Maximum altitude 09:03:27 73° 72° (ENE) 1,027 4.5 -14.5°
Drops below altitude 10° 09:09:47 10° 156° (SSE) 2,739 7.3 -15.2°
Sets 09:12:20 0° 157° (SSE) 3,688 8.0 -15.5°
